"Period start","avg(HW err(1)/warn(2) (#))","avg(Visibility (m))","avg(Weather code (#))","avg(Precip intensity (mm/h))","min(HW err(1)/warn(2) (#))","max(HW err(1)/warn(2) (#))","std(HW err(1)/warn(2) (#))","med(HW err(1)/warn(2) (#))","min(Visibility (m))","max(Visibility (m))","std(Visibility (m))","med(Visibility (m))","min(Weather code (#))","max(Weather code (#))","std(Weather code (#))","med(Weather code (#))","min(Precip intensity (mm/h))","max(Precip intensity (mm/h))","std(Precip intensity (mm/h))","med(Precip intensity (mm/h))"
2017-08-10 00:00:00,0,2489,56,0.92,0,0,0,0,2083,2891,255,2453,51,61,5,56,0.40,2.65,0.63,0.73
2017-08-10 00:10:00,0,2570,55,0.69,0,0,0,0,2249,3097,273,2454,51,61,5,51,0.45,1.10,0.23,0.57
2017-08-10 00:20:00,0,2819,61,0.33,0,0,0,0,2478,3447,294,2774,61,61,0,61,0.20,0.45,0.08,0.30
2017-08-10 00:30:00,0,2464,48,0.47,0,0,0,0,2055,2852,234,2484,41,51,5,51,0.20,0.90,0.22,0.40
2017-08-10 00:40:00,0,2716,55,0.51,0,0,0,0,1952,3397,524,2786,41,61,8,61,0.15,1.05,0.32,0.38
2017-08-10 00:50:00,0,3260,61,0.29,0,0,0,0,2859,3809,283,3188,61,61,0,61,0.10,0.95,0.24,0.17
2017-08-10 01:00:00,1,3878,61,0.28,0,2,1,2,2796,6049,935,3516,61,61,0,61,0.05,0.50,0.15,0.30
2017-08-10 01:10:00,2,2844,54,0.64,0,2,1,2,2254,4042,511,2594,51,61,5,51,0.20,0.95,0.28,0.70
2017-08-10 01:20:00,1,5018,43,0.11,0,2,1,2,3013,6624,1283,4942,10,51,16,51,0.00,0.20,0.07,0.12
2017-08-10 01:30:00,1,7634,10,0.00,0,2,1,0,5563,10538,1860,6814,10,10,0,10,0.00,0.00,0.00,0.00
2017-08-10 01:40:00,1,14221,8,0.00,0,2,1,2,12103,15986,1447,14636,0,10,4,10,0.00,0.00,0.00,0.00
2017-08-10 01:50:00,0,12318,0,0.00,0,0,0,0,9134,16052,2565,11856,0,0,0,0,0.00,0.00,0.00,0.00
2017-08-10 02:00:00,0,9944,0,0.00,0,0,0,0,7509,11684,1424,10244,0,0,0,0,0.00,0.00,0.00,0.00
2017-08-10 02:10:00,1,8045,7,0.00,0,2,1,1,3742,12791,3032,7244,0,10,5,10,0.00,0.00,0.00,0.00
2017-08-10 02:20:00,2,10369,9,0.00,0,2,1,2,6631,13772,2271,10298,0,10,3,10,0.00,0.00,0.00,0.00
2017-08-10 02:30:00,2,8828,9,0.00,0,2,1,2,5204,11042,1710,8782,0,10,3,10,0.00,0.00,0.00,0.00
2017-08-10 02:40:00,2,8234,10,0.00,2,2,0,2,5127,12585,2384,7502,10,10,0,10,0.00,0.00,0.00,0.00
2017-08-10 02:50:00,2,6674,37,0.07,0,2,1,2,5004,8236,1061,6656,10,61,22,51,0.00,0.30,0.10,0.00
2017-08-10 03:00:00,2,5512,10,0.00,0,2,1,2,3980,7751,1050,5628,10,10,0,10,0.00,0.00,0.00,0.00
2017-08-10 03:10:00,1,3723,37,0.33,0,2,1,2,3253,4651,402,3579,10,61,22,51,0.00,1.35,0.41,0.20
2017-08-10 03:20:00,0,4290,60,0.58,0,0,0,0,3461,5330,625,4174,51,61,3,61,0.15,1.85,0.50,0.40
2017-08-10 03:30:00,0,5198,20,0.01,0,2,1,0,3628,7624,1460,4632,10,61,20,10,0.00,0.10,0.03,0.00
2017-08-10 03:40:00,1,4227,45,0.49,0,2,1,2,3619,5115,424,4161,10,61,18,52,0.00,1.50,0.41,0.40
2017-08-10 03:50:00,2,5563,49,0.20,0,2,1,2,4186,6384,790,5874,10,61,20,61,0.00,0.90,0.27,0.10
2017-08-10 04:00:00,2,6803,10,0.00,0,2,1,2,5438,7650,685,6845,10,10,0,10,0.00,0.00,0.00,0.00
2017-08-10 04:10:00,2,6158,10,0.00,0,2,1,2,4916,7416,814,6216,10,10,0,10,0.00,0.00,0.00,0.00
2017-08-10 04:20:00,2,4687,30,0.09,0,2,1,2,4217,5369,352,4752,10,61,25,10,0.00,0.35,0.14,0.00
2017-08-10 04:30:00,2,3831,61,1.03,2,2,0,2,3429,4363,271,3763,61,61,0,61,0.45,1.90,0.39,0.95
2017-08-10 04:40:00,2,3338,61,1.98,2,2,0,2,3010,3853,236,3367,61,61,0,61,0.70,4.00,1.14,1.60
2017-08-10 04:50:00,2,3366,61,1.93,0,2,1,2,2767,4245,417,3349,61,61,0,61,1.05,4.60,1.07,1.43
2017-08-10 05:00:00,2,3255,52,1.03,2,2,0,2,2872,3928,293,3294,51,52,0,52,0.45,1.75,0.40,0.95
2017-08-10 05:10:00,2,3067,57,0.81,2,2,0,2,2569,3597,342,3127,51,61,5,61,0.40,1.50,0.37,0.70
2017-08-10 05:20:00,2,3495,54,0.62,2,2,0,2,2877,4505,427,3462,51,61,5,51,0.25,1.10,0.28,0.62
2017-08-10 05:30:00,2,5527,36,0.25,2,2,0,2,4136,7144,1020,5419,10,61,21,51,0.00,0.70,0.28,0.08
2017-08-10 05:40:00,2,4187,20,0.03,2,2,0,2,3595,4908,436,4136,10,61,20,10,0.00,0.25,0.08,0.00
2017-08-10 05:50:00,2,3562,57,0.93,2,2,0,2,2868,4352,427,3550,51,61,5,61,0.10,3.95,1.07,0.57
2017-08-10 06:00:00,2,3792,55,0.65,2,2,0,2,3217,4432,423,3740,51,61,5,51,0.00,2.75,0.75,0.38
2017-08-10 06:10:00,2,4143,58,0.45,2,2,0,2,3679,4670,321,4076,51,61,5,61,0.10,1.00,0.29,0.38
2017-08-10 06:20:00,2,3781,61,1.27,2,2,0,2,3494,4186,209,3768,61,61,0,61,0.35,6.05,1.70,0.50
2017-08-10 06:30:00,2,3589,59,0.74,2,2,0,2,3039,4086,390,3770,51,61,4,61,0.30,1.30,0.33,0.73
2017-08-10 06:40:00,2,3238,61,0.74,2,2,0,2,2892,3644,225,3144,61,61,0,61,0.30,1.45,0.37,0.70
2017-08-10 06:50:00,2,4512,41,0.18,2,2,0,2,3259,6045,900,4436,10,61,25,61,0.00,0.85,0.30,0.05
2017-08-10 07:00:00,2,4697,25,0.07,2,2,0,2,2562,7120,1390,4891,10,61,23,10,0.00,0.55,0.16,0.00
2017-08-10 07:10:00,2,11384,10,0.00,2,2,0,2,5490,21094,5138,9858,10,10,0,10,0.00,0.00,0.00,0.00
2017-08-10 07:20:00,2,3989,16,0.04,2,2,0,2,2601,6338,1081,3774,10,40,12,10,0.00,0.35,0.11,0.00
2017-08-10 07:30:00,2,3340,55,0.21,2,2,0,2,2394,4016,476,3381,41,61,8,61,0.00,0.80,0.24,0.12
2017-08-10 07:40:00,2,3532,65,0.02,2,2,0,2,2391,4684,767,3406,10,71,18,71,0.00,0.05,0.02,0.00
2017-08-10 07:50:00,2,3493,15,0.05,2,2,0,2,2493,5920,1062,2968,10,61,15,10,0.00,0.50,0.15,0.00
2017-08-10 08:00:00,2,3947,60,0.03,2,2,0,2,2643,5244,705,3981,41,67,10,64,0.00,0.15,0.04,0.03
2017-08-10 08:10:00,2,5658,21,0.00,2,2,0,2,3447,9680,1845,5218,10,67,23,10,0.00,0.00,0.00,0.00
2017-08-10 08:20:00,2,4211,58,0.25,2,2,0,2,3281,5405,677,4030,10,67,16,61,0.00,0.70,0.27,0.12
2017-08-10 08:30:00,2,3021,62,0.48,2,2,0,2,2502,3343,257,3096,61,67,2,61,0.15,0.80,0.23,0.45
2017-08-10 08:40:00,2,3359,65,0.36,2,2,0,2,2763,3621,224,3352,61,71,5,61,0.05,1.00,0.29,0.35
2017-08-10 08:50:00,2,3410,67,0.33,2,2,0,2,2887,3988,302,3396,67,67,0,67,0.05,1.75,0.49,0.15
2017-08-10 09:00:00,2,3350,59,0.48,2,2,0,2,1999,3988,560,3391,51,61,4,61,0.15,1.15,0.29,0.40
2017-08-10 09:10:00,2,3419,61,0.86,2,2,0,2,2806,4019,369,3383,61,61,0,61,0.30,1.95,0.63,0.45
2017-08-10 09:20:00,2,3679,59,1.04,2,2,0,2,2735,4161,384,3799,52,61,4,61,0.30,2.20,0.67,0.93
2017-08-10 09:30:00,2,4002,51,0.40,2,2,0,2,3538,4895,370,3990,51,52,0,51,0.10,0.75,0.20,0.40
2017-08-10 09:40:00,2,4335,10,0.00,2,2,0,2,3739,5124,400,4287,10,10,0,10,0.00,0.00,0.00,0.00
2017-08-10 09:50:00,2,7487,10,0.00,2,2,0,2,4328,9897,1805,7387,10,10,0,10,0.00,0.00,0.00,0.00
2017-08-10 10:00:00,2,13273,10,0.00,2,2,0,2,7892,22965,4306,13020,10,10,0,10,0.00,0.00,0.00,0.00
2017-08-10 10:10:00,2,27138,1,0.00,2,2,0,2,18209,38114,6667,26952,0,10,3,0,0.00,0.00,0.00,0.00
2017-08-10 10:20:00,2,37908,0,0.00,2,2,0,2,30226,46235,5922,38052,0,0,0,0,0.00,0.00,0.00,0.00
2017-08-10 10:30:00,2,45208,0,0.00,2,2,0,2,36625,50000,3904,46210,0,0,0,0,0.00,0.00,0.00,0.00
2017-08-10 10:40:00,2,45795,0,0.00,2,2,0,2,40442,50000,3728,45746,0,0,0,0,0.00,0.00,0.00,0.00
2017-08-10 10:50:00,2,44570,0,0.00,2,2,0,2,37987,48562,2937,44260,0,0,0,0,0.00,0.00,0.00,0.00
2017-08-10 11:00:00,2,45480,0,0.00,2,2,0,2,37102,50000,4817,47498,0,0,0,0,0.00,0.00,0.00,0.00
2017-08-10 11:10:00,2,43676,0,0.00,2,2,0,2,35483,50000,4889,44039,0,0,0,0,0.00,0.00,0.00,0.00
2017-08-10 11:20:00,2,46743,0,0.00,1,2,0,2,39187,50000,4072,48882,0,0,0,0,0.00,0.00,0.00,0.00
2017-08-10 11:30:00,2,42141,0,0.00,2,2,0,2,35071,50000,5528,41284,0,0,0,0,0.00,0.00,0.00,0.00
2017-08-10 11:40:00,2,38851,0,0.00,2,2,0,2,34469,42526,2299,39140,0,0,0,0,0.00,0.00,0.00,0.00
2017-08-10 11:50:00,2,42433,0,0.00,2,2,0,2,35988,47976,4028,41762,0,0,0,0,0.00,0.00,0.00,0.00
2017-08-10 12:00:00,2,45340,0,0.00,2,2,0,2,39924,50000,3475,44789,0,0,0,0,0.00,0.00,0.00,0.00
2017-08-10 12:10:00,2,42898,0,0.00,2,2,0,2,37929,50000,4425,41423,0,0,0,0,0.00,0.00,0.00,0.00
2017-08-10 12:20:00,2,49963,0,0.00,2,2,0,2,49632,50000,110,50000,0,0,0,0,0.00,0.00,0.00,0.00
2017-08-10 12:30:00,2,45117,0,0.00,2,2,0,2,41203,50000,3405,43988,0,0,0,0,0.00,0.00,0.00,0.00
2017-08-10 12:40:00,2,49455,0,0.00,2,2,0,2,47366,50000,983,50000,0,0,0,0,0.00,0.00,0.00,0.00
2017-08-10 12:50:00,2,48619,0,0.00,2,2,0,2,45241,50000,1785,50000,0,0,0,0,0.00,0.00,0.00,0.00
2017-08-10 13:00:00,2,49596,0,0.00,2,2,0,2,48244,50000,555,49956,0,0,0,0,0.00,0.00,0.00,0.00
2017-08-10 13:10:00,2,47657,0,0.00,2,2,0,2,39247,50000,3487,49516,0,0,0,0,0.00,0.00,0.00,0.00
2017-08-10 13:20:00,2,49065,0,0.00,2,2,0,2,42900,50000,2112,50000,0,0,0,0,0.00,0.00,0.00,0.00
2017-08-10 13:30:00,2,47979,0,0.00,2,2,0,2,42749,50000,2652,49918,0,0,0,0,0.00,0.00,0.00,0.00
2017-08-10 13:40:00,2,45485,0,0.00,2,2,0,2,39169,50000,3547,45514,0,0,0,0,0.00,0.00,0.00,0.00
2017-08-10 13:50:00,2,47313,0,0.00,2,2,0,2,40183,50000,2801,47798,0,0,0,0,0.00,0.00,0.00,0.00
2017-08-10 14:00:00,2,47387,0,0.00,2,2,0,2,42560,50000,2647,47824,0,0,0,0,0.00,0.00,0.00,0.00
2017-08-10 14:10:00,2,49526,0,0.00,2,2,0,2,47557,50000,924,50000,0,0,0,0,0.00,0.00,0.00,0.00
2017-08-10 14:20:00,2,50000,0,0.00,2,2,0,2,50000,50000,0,50000,0,0,0,0,0.00,0.00,0.00,0.00
2017-08-10 14:30:00,2,49553,0,0.00,2,2,0,2,48074,50000,669,50000,0,0,0,0,0.00,0.00,0.00,0.00
2017-08-10 14:40:00,2,49467,0,0.00,2,2,0,2,48264,50000,671,50000,0,0,0,0,0.00,0.00,0.00,0.00
2017-08-10 14:50:00,2,49401,0,0.00,2,2,0,2,44434,50000,1661,50000,0,0,0,0,0.00,0.00,0.00,0.00
2017-08-10 15:00:00,2,50000,0,0.00,2,2,0,2,50000,50000,0,50000,0,0,0,0,0.00,0.00,0.00,0.00
2017-08-10 15:10:00,2,50000,0,0.00,2,2,0,2,50000,50000,0,50000,0,0,0,0,0.00,0.00,0.00,0.00
2017-08-10 15:20:00,2,49760,0,0.00,2,2,0,2,48507,50000,498,50000,0,0,0,0,0.00,0.00,0.00,0.00
2017-08-10 15:30:00,2,50000,0,0.00,2,2,0,2,50000,50000,0,50000,0,0,0,0,0.00,0.00,0.00,0.00
2017-08-10 15:40:00,2,50000,0,0.00,2,2,0,2,50000,50000,0,50000,0,0,0,0,0.00,0.00,0.00,0.00
2017-08-10 15:50:00,2,49596,0,0.00,2,2,0,2,45958,50000,1213,50000,0,0,0,0,0.00,0.00,0.00,0.00
2017-08-10 16:00:00,2,49784,0,0.00,2,2,0,2,47836,50000,649,50000,0,0,0,0,0.00,0.00,0.00,0.00
2017-08-10 16:10:00,2,50000,0,0.00,2,2,0,2,50000,50000,0,50000,0,0,0,0,0.00,0.00,0.00,0.00
2017-08-10 16:20:00,2,49777,0,0.00,2,2,0,2,47766,50000,670,50000,0,0,0,0,0.00,0.00,0.00,0.00
2017-08-10 16:30:00,2,49278,0,0.00,2,2,0,2,45354,50000,1516,50000,0,0,0,0,0.00,0.00,0.00,0.00
2017-08-10 16:40:00,2,49050,0,0.00,2,2,0,2,43074,50000,2067,50000,0,0,0,0,0.00,0.00,0.00,0.00
2017-08-10 16:50:00,2,49727,0,0.00,2,2,0,2,47959,50000,624,50000,0,0,0,0,0.00,0.00,0.00,0.00
2017-08-10 17:00:00,2,50000,0,0.00,2,2,0,2,50000,50000,0,50000,0,0,0,0,0.00,0.00,0.00,0.00
2017-08-10 17:10:00,2,49883,0,0.00,2,2,0,2,48869,50000,338,50000,0,0,0,0,0.00,0.00,0.00,0.00
2017-08-10 17:20:00,2,50000,0,0.00,2,2,0,2,50000,50000,0,50000,0,0,0,0,0.00,0.00,0.00,0.00
2017-08-10 17:30:00,2,49685,0,0.00,2,2,0,2,48038,50000,653,50000,0,0,0,0,0.00,0.00,0.00,0.00
2017-08-10 17:40:00,2,50000,0,0.00,2,2,0,2,50000,50000,0,50000,0,0,0,0,0.00,0.00,0.00,0.00
2017-08-10 17:50:00,2,49936,0,0.00,2,2,0,2,49362,50000,191,50000,0,0,0,0,0.00,0.00,0.00,0.00
2017-08-10 18:00:00,2,48916,0,0.00,2,2,0,2,43378,50000,1997,49924,0,0,0,0,0.00,0.00,0.00,0.00
2017-08-10 18:10:00,2,49872,0,0.00,2,2,0,2,49337,50000,257,50000,0,0,0,0,0.00,0.00,0.00,0.00
2017-08-10 18:20:00,2,49343,0,0.00,2,2,0,2,47144,50000,904,49848,0,0,0,0,0.00,0.00,0.00,0.00
2017-08-10 18:30:00,2,49526,0,0.00,2,2,0,2,45748,50000,1268,50000,0,0,0,0,0.00,0.00,0.00,0.00
2017-08-10 18:40:00,2,48475,0,0.00,2,2,0,2,44953,50000,1783,49532,0,0,0,0,0.00,0.00,0.00,0.00
2017-08-10 18:50:00,2,49535,0,0.00,2,2,0,2,46872,50000,997,50000,0,0,0,0,0.00,0.00,0.00,0.00
2017-08-10 19:00:00,2,49761,0,0.00,2,2,0,2,47610,50000,717,50000,0,0,0,0,0.00,0.00,0.00,0.00
2017-08-10 19:10:00,2,50000,0,0.00,2,2,0,2,50000,50000,0,50000,0,0,0,0,0.00,0.00,0.00,0.00
2017-08-10 19:20:00,2,47997,0,0.00,2,2,0,2,42981,50000,2094,48358,0,0,0,0,0.00,0.00,0.00,0.00
2017-08-10 19:30:00,2,49066,0,0.00,2,2,0,2,46322,50000,1409,50000,0,0,0,0,0.00,0.00,0.00,0.00
2017-08-10 19:40:00,2,47812,0,0.00,2,2,0,2,40496,50000,2872,48628,0,0,0,0,0.00,0.00,0.00,0.00
2017-08-10 19:50:00,2,49363,0,0.00,1,2,0,2,47804,50000,921,50000,0,0,0,0,0.00,0.00,0.00,0.00
2017-08-10 20:00:00,2,49423,0,0.00,2,2,0,2,47025,50000,912,50000,0,0,0,0,0.00,0.00,0.00,0.00
2017-08-10 20:10:00,2,47929,0,0.00,2,2,0,2,41323,50000,2521,48753,0,0,0,0,0.00,0.00,0.00,0.00
2017-08-10 20:20:00,2,45066,0,0.00,2,2,0,2,33336,50000,6103,47848,0,0,0,0,0.00,0.00,0.00,0.00
2017-08-10 20:30:00,2,46556,0,0.00,2,2,0,2,42196,50000,3178,47144,0,0,0,0,0.00,0.00,0.00,0.00
2017-08-10 20:40:00,2,48572,0,0.00,2,2,0,2,43079,50000,2116,49644,0,0,0,0,0.00,0.00,0.00,0.00
2017-08-10 20:50:00,2,48973,0,0.00,2,2,0,2,45547,50000,1621,50000,0,0,0,0,0.00,0.00,0.00,0.00
2017-08-10 21:00:00,2,48931,0,0.00,2,2,0,2,41643,50000,2483,50000,0,0,0,0,0.00,0.00,0.00,0.00
2017-08-10 21:10:00,2,48282,0,0.00,2,2,0,2,44812,50000,1805,48772,0,0,0,0,0.00,0.00,0.00,0.00
2017-08-10 21:20:00,2,49380,0,0.00,2,2,0,2,46496,50000,1064,49957,0,0,0,0,0.00,0.00,0.00,0.00
2017-08-10 21:30:00,2,48933,0,0.00,2,2,0,2,44378,50000,1773,50000,0,0,0,0,0.00,0.00,0.00,0.00
2017-08-10 21:40:00,2,47348,0,0.00,2,2,0,2,41553,50000,3083,48795,0,0,0,0,0.00,0.00,0.00,0.00
2017-08-10 21:50:00,2,48590,0,0.00,2,2,0,2,43777,50000,2231,50000,0,0,0,0,0.00,0.00,0.00,0.00
2017-08-10 22:00:00,2,49244,0,0.00,2,2,0,2,44279,50000,1744,50000,0,0,0,0,0.00,0.00,0.00,0.00
2017-08-10 22:10:00,2,50000,0,0.00,2,2,0,2,50000,50000,0,50000,0,0,0,0,0.00,0.00,0.00,0.00
2017-08-10 22:20:00,2,48680,0,0.00,2,2,0,2,44727,50000,2016,49968,0,0,0,0,0.00,0.00,0.00,0.00
2017-08-10 22:30:00,2,46088,0,0.00,2,2,0,2,39447,50000,3326,46229,0,0,0,0,0.00,0.00,0.00,0.00
2017-08-10 22:40:00,2,47180,0,0.00,2,2,0,2,43157,50000,2142,47478,0,0,0,0,0.00,0.00,0.00,0.00
2017-08-10 22:50:00,2,47446,0,0.00,2,2,0,2,41342,50000,3107,49536,0,0,0,0,0.00,0.00,0.00,0.00
2017-08-10 23:00:00,2,49568,0,0.00,2,2,0,2,47664,50000,867,50000,0,0,0,0,0.00,0.00,0.00,0.00
2017-08-10 23:10:00,2,45795,0,0.00,2,2,0,2,41615,50000,2809,45787,0,0,0,0,0.00,0.00,0.00,0.00
2017-08-10 23:20:00,2,47819,0,0.00,1,2,0,2,43619,50000,1977,47940,0,0,0,0,0.00,0.00,0.00,0.00
2017-08-10 23:30:00,2,49126,0,0.00,2,2,0,2,45835,50000,1329,49847,0,0,0,0,0.00,0.00,0.00,0.00
2017-08-10 23:40:00,2,48512,0,0.00,2,2,0,2,44127,50000,1695,48942,0,0,0,0,0.00,0.00,0.00,0.00
2017-08-10 23:50:00,2,44967,0,0.00,2,2,0,2,33518,49545,4771,45520,0,0,0,0,0.00,0.00,0.00,0.00
